{"data":{"norad_id":67878,"epoch":"2026-05-25T04:08:33.789120Z","epoch_age_seconds":60384,"freshness":"FRESH","line1":"1 67878U 26034AE  26145.17261330  .00015062  00000+0  51944-3 0  9991","line2":"2 67878  53.1591 209.1199 0001254  85.2627 274.8517 15.30211327 15741","mean_motion":15.30211327,"eccentricity":0.0001254,"inclination_deg":53.1591,"raan_deg":209.1199,"arg_perigee_deg":85.2627,"mean_anomaly_deg":274.8517,"bstar":0.00051944,"rev_number":1574,"period_min":94.104649115566,"perigee_km":474.3218431392,"apogee_km":476.04065535611,"semimajor_km":6853.3182492477,"source":"CELESTRAK","updated_at":"2026-05-25T13:38:21.731214Z"}}